Location: Gollag?dem
(17.0207°N, 80.7261°E)
Time: 07:21:08
(UTC+00:00)

Cosmos 2056 Rocket - Pass Details

Date: 03 August 2024
Orbit: 740 x 797 km, 74.0° (Epoch: 10 September)

Event Time Altitude Azimuth Distance (km) Brightness Sun altitude
Exits shadow 14:50:21 29° 184° (S) 1,399 4.6 -23.2°
Maximum altitude 14:53:07 77° 103° (ESE) 789 3.3 -23.8°
Drops below altitude 10° 14:58:17 10° 17° (NNE) 2,283 6.1 -24.9°
Sets 15:00:38 0° 16° (NNE) 3,201 6.9 -25.4°
